星链-5031 (STARLINK-5031 )

导读 | 星芒AI

STARLINK-5031 是 SpaceX 星链计划中的一颗低轨通信卫星,属于第 14 批组网发射的星链卫星之一。该卫星运行在约 550 公里的轨道高度,旨在为全球用户提供高速互联网服务。星链计划通过部署数千颗卫星,构建覆盖全球的宽带网络,尤其服务于偏远地区。STARLINK-5031 采用先进推进系统和激光通信技术,提高网络效率与稳定性,是 SpaceX 实现全球互联网覆盖目标的重要组成部分。

基本信息
目录编号:
53889
目录名称:
STARLINK-5031
国际标识:
2022-119D
轨道中心:
EARTH
卫星名称:
星链-5031
卫星全名:
星链-5031 (STARLINK-5031 )
卫星状态:
在轨 (已飞行1184 天)
发射日期:
2022-09-24 UTC
国别 :
美国 (US)
星等 :
--
轨道信息
数据来源 国际轨道数据 AOE轨道数据
星历时间 2025-12-21T11:17:14+0800
6小时前
查看轨道信息
2025-12-18T20:00:00+0800
2天前
查看轨道信息
半长轴 6917.886km 6917.941km
偏心率 0.000158 0.0002574
轨道倾角 53.220° 53.215°
近地点辐角 118.063° 90.867°
升交点赤经 316.918° 328.757°
平近点角 242.052° 337.886°
近地点 538.655km 538.025km
远地点 540.843km 541.587km
周期 95.438分钟 95.439分钟
每日圈数 15.088382 15.088203
详细信息
固有亮度:
5
最大亮度:
2.5
卫星平台:
Starlink v1.5
覆盖范围:
全球
运营商:
太空探索技术公司
运营商所在国:
美国
制造商(研发单位):
太空探索技术公司
制造商所在国:
美国
使用方式:
暂无
卫星简介
星链(Starlink)计划是由太空探索技术公司(SpaceX)提出的一个巨型低轨卫星互联网星座项目,计划在2019年至2024年间在太空搭建由约1.2万颗卫星组成的“星链”网络,其中1584颗将部署在地球上空550千米处的近地轨道,并从2020年开始工作。该卫星仍在工作。
2D轨道图
3D轨道图
轨道高度分析图
轨道倾角分析图
轨道综合分析图
查看轨道综合分析图